Location: Frydek-Mistek
(49.6830°N, 18.3330°E)
Time: 23:54:33
(UTC+02:00)

Courier 1B Rocket - All Passes

Search period start: 05 May 2016 00:00
Search period end: 15 May 2016 00:00
Orbit: 920 x 1202 km, 28.3° (Epoch: 04 May)

Date Brightness Start Highest point End Pass type
(mag) Time Alt. Az. Time Alt. Az. Time Alt. Az.
05 May - 16:24:08 10° SSW 16:27:26 13° S 16:30:46 10° SSE daylight
05 May - 18:16:22 10° SSW 18:19:36 13° S 18:22:48 10° SSE daylight
06 May - 15:24:21 10° S 15:26:44 12° SSE 15:29:10 10° SSE daylight
06 May - 17:15:15 10° SSW 17:18:53 14° S 17:22:31 10° SSE daylight
07 May - 16:14:33 10° SSW 16:18:10 14° S 16:21:47 10° SSE daylight
07 May - 18:08:00 10° SSW 18:10:18 11° SSW 18:12:35 10° S daylight
08 May - 15:14:17 10° SSW 15:17:27 13° S 15:20:39 10° SSE daylight
08 May - 17:06:23 10° SSW 17:09:36 13° S 17:12:49 10° SSE daylight
09 May - 14:14:43 10° S 14:16:46 11° SSE 14:18:51 10° SSE daylight
09 May - 16:05:23 10° SSW 16:08:53 14° S 16:12:25 10° SSE daylight
10 May - 15:04:49 10° SSW 15:08:11 13° S 15:11:36 10° SSE daylight
10 May - 16:58:12 10° SSW 17:00:18 11° SSW 17:02:25 10° S daylight
11 May - 14:04:43 10° SSW 14:07:30 12° S 14:10:20 10° SSE daylight
11 May - 15:56:41 10° SSW 15:59:37 13° S 16:02:35 10° SSE daylight
12 May - 13:05:33 10° S 13:06:52 11° SSE 13:08:12 10° SSE daylight
12 May - 14:55:47 10° SSW 14:58:56 13° S 15:02:07 10° SSE daylight
13 May - 13:55:21 10° SSW 13:58:16 13° S 14:01:14 10° SSE daylight
13 May - 15:48:53 10° SSW 15:50:20 11° SSW 15:51:49 10° S daylight
14 May - 12:55:27 10° S 12:57:38 11° S 12:59:51 10° SSE daylight
14 May - 14:47:17 10° SSW 14:49:41 12° S 14:52:06 10° SSE daylight
